Location: Bonnesvalyn
(49.1218°N, 3.3177°E)
Time: 23:33:47
(UTC+00:00)

CZ-4 R/B - Pass Details

Date: 09 February 2023
Orbit: 577 x 586 km, 97.7° (Epoch: 01 April)

Event Time Altitude Azimuth Distance (km) Brightness Sun altitude
Rises 17:50:53 0° 162° (SSE) 2,786 7.9 -9.4°
Reaches altitude 10° 17:53:01 10° 162° (SSE) 1,893 7.0 -9.7°
Maximum altitude 17:57:07 82° 76° (ENE) 594 4.4 -10.4°
Drops below altitude 10° 18:01:17 10° 348° (NNW) 1,915 7.1 -11.0°
Sets 18:03:27 0° 348° (NNW) 2,822 8.0 -11.4°
